User: anonymous   Login
Location: Bazugues
(43.4465°N, 0.3432°E)
Time: 01:53:40
(UTC+00:00)
Language:

BREEZE-M DEB (TANK) - Orbit

View from above orbital plane
View from above orbital plane
View from above satellite
View from above satellite

Ground track
Ground track

The orbit is defined by the following mean orbital elements,

1 36501U          26070.59971036 +.00000000 +00000-0 +12533-2 0 00009
2 36501  49.6492 282.5092 4794798  87.2473 324.6291  5.96661336    00
Epoch (UTC): 11 March 2026 14:23:34
Eccentricity: 0.4794798
inclination: 49.6492°
perigee height: 306 km
apogee height: 12619 km
right ascension of ascending node: 282.5092°
argument of perigee: 87.2473°
revolutions per day: 5.96661336
mean anomaly at epoch: 324.6291°

The dashed part of the orbit path shows where the satellite is in the earth's shadow,  

DLR